Flag for United Kingdom Weather past 2 weeks in Market Harborough, England, United Kingdom

Now
60 °F

Cool.


Feels Like: 61 °F
Forecast: 51 / 62 °F
Wind: 3 mph from South

Location: Church Lawford

Current Time: Jul 7, 2015 at 1:44:40 AM

Latest Report: Jul 7, 2015 at 1:00 AM


Visibility: 28 mi

Pressure: 29.88 "Hg

Humidity: 76%

Dew point: 52 °F

Location of Market HarboroughLocation

Historic Weather in Market Harborough — Graph

°F

Market Harborough temperature yesterday

Maximum temperature yesterday: 66 °F (at 5:00 PM)
Minimum temperature yesterday: 47 °F (at 4:00 AM)
Average temperature yesterday: 59 °F

Past Weeks' High & Low Weather Summary

 TemperatureHumidityPressure
High90 °F (Jul 1, 4:00 PM)99% (Jul 3, 6:00 AM)30.31 "Hg (Jul 3, 6:00 AM)
Low46 °F (Jul 3, 5:00 AM)31% (Jun 30, 5:00 PM)29.79 "Hg (Jul 1, 6:00 PM)
Average63 °F72%30.05 "Hg
* Reported Midnight between Jun 21 and Jun 22 — Midnight between Jul 6 and Jul 7, Market Harborough, Weather by CustomWeather, © 2015

Note: Actual official high and low records may vary slightly from our data, if they occured in-between our weather recording intervals... More about our weather records

Advertising

Market Harborough weather history for previous 24 hours

 ConditionsComfort  
Time TempWeatherWind HumidityBarometerVisibility
12:00 AM
Tue, Jul 7
61 °FCool.7 mph74%29.90 "Hg31 mi
11:00 PM
Mon, Jul 6
63 °FMild.6 mph70%29.91 "Hg25 mi
9:00 PM65 °FMild.7 mph66%29.93 "Hg28 mi
8:00 PM65 °FMild.7 mph66%29.96 "Hg28 mi
7:00 PM65 °FRain showers. Cloudy.9 mph66%29.96 "Hg22 mi
6:00 PM65 °FMild.5 mph65%29.97 "Hg18 mi
5:00 PM66 °FMild.9 mph61%30.00 "Hg19 mi
4:00 PM65 °FMild.9 mph60%30.01 "Hg19 mi
3:00 PM65 °FMild.7 mph65%30.04 "Hg19 mi
2:00 PM64 °FLight freezing rain. Cloudy.6 mph75%30.04 "Hg13 mi
1:00 PM62 °FCool.6 mph76%30.06 "Hg15 mi
12:00 PM64 °FMild.8 mph63%30.06 "Hg17 mi
10:00 AM62 °FCool.9 mph67%30.08 "Hg19 mi
9:00 AM60 °FCool.6 mph78%30.09 "Hg14 mi
8:00 AM56 °FCool.5 mph90%30.10 "Hg15 mi
7:00 AM52 °FCool.5 mph94%30.10 "Hg10 mi
6:00 AM51 °FCool.3 mph97%30.09 "Hg10 mi
5:00 AM49 °FCool.3 mph96%30.09 "Hg9 mi
4:00 AM47 °FFog.2 mph96%30.08 "Hg6 mi
3:00 AM49 °FCool.2 mph94%30.08 "Hg9 mi
2:00 AM51 °FCool.2 mph92%30.07 "Hg14 mi
1:00 AM53 °FCool.5 mph85%30.06 "Hg14 mi
Weather by CustomWeather, © 2015

See weather overviewHow to use our weather pages